Latest Weather Observations for Batchelor

IDD60801

Issued at 10:05 pm CST Wednesday 23 April 2014 (issued every 30 minutes, with the page automatically refreshed every 10 minutes)

About weather observations | Map of weather stations | Latest weather observations for NT | Other Formats
Station Details ID: 014272 Name: BATCHELOR AIRPORT Lat: -13.05 Lon: 131.03 Height: 104.0 m
Data from the previous 72 hours. | See also: Recent months at Batchelor
Date/Time
CST
Temp
°C
App
Temp
°C
Dew
Point
Rel
Hum
%
Delta-T
°C
Wind Press
QNH
hPa
Press
MSL
hPa
Rain
since 9 am
mm
Dir
 
Spd
km/h
Gust
km/h
Spd
kts
Gust
kts
23/10:00pm 25.7 29.7 21.4 77 2.9 SSE 2 4 1 2 1009.1 - 0.0
23/09:30pm 25.8 29.2 21.0 75 3.2 SSE 4 6 2 3 1008.9 1008.2 0.0
23/09:00pm 25.6 29.3 20.8 75 3.2 S 2 4 1 2 1008.7 1008.0 0.0
23/08:30pm 26.6 30.5 21.1 72 3.7 S 2 4 1 2 1008.1 1007.4 0.0
23/08:00pm 27.0 30.1 20.3 66 4.4 S 4 4 2 2 1007.6 - 0.0
23/07:30pm 27.2 30.5 20.8 68 4.2 SSE 4 4 2 2 1007.5 1006.8 0.0
23/07:00pm 28.7 31.6 19.9 59 5.8 SSE 4 4 2 2 1007.2 - 0.0
23/06:30pm 30.4 33.2 19.7 52 7.1 SSE 4 7 2 4 1006.7 1006.0 0.0
23/06:00pm 31.6 34.7 20.2 50 7.6 SE 4 7 2 4 1006.3 1005.6 0.0
23/05:30pm 32.4 34.6 19.6 46 8.5 SE 7 11 4 6 1005.8 1005.1 0.0
23/05:00pm 32.7 34.7 19.2 44 8.9 SE 7 15 4 8 1005.5 - 0.0
23/04:30pm 33.5 34.0 18.4 40 9.9 ESE 13 24 7 13 1005.4 1004.7 0.0
23/04:00pm 33.9 34.2 18.8 41 9.9 SE 15 22 8 12 1005.4 - 0.0
23/03:30pm 34.2 34.5 18.7 40 10.2 SE 15 26 8 14 1005.6 1004.9 0.0
23/03:00pm 34.2 34.8 18.7 40 10.2 SE 13 20 7 11 1005.9 1005.2 0.0
23/02:30pm 34.3 35.2 18.3 38 10.5 SSE 11 20 6 11 1006.4 1005.7 0.0
23/02:00pm 33.7 33.6 17.8 38 10.3 SSE 15 24 8 13 1006.8 - 0.0
23/01:30pm 33.8 34.1 17.9 38 10.3 ESE 13 19 7 10 1007.1 1006.4 0.0
23/01:00pm 33.9 34.4 18.4 40 10.1 SE 13 24 7 13 1007.5 - 0.0
23/12:30pm 33.1 31.5 16.5 37 10.6 ESE 20 30 11 16 1007.9 1007.2 0.0
23/12:00pm 32.8 33.7 19.3 45 8.9 ESE 13 20 7 11 1008.5 1007.8 0.0
23/11:30am 32.2 33.1 20.1 48 8.1 ESE 15 24 8 13 1009.2 1008.5 0.0
23/11:00am 31.2 32.5 20.2 52 7.3 ESE 13 20 7 11 1009.7 - 0.0
23/10:30am 30.4 31.9 20.6 55 6.5 E 13 20 7 11 1010.2 1009.5 0.0
23/10:00am 29.4 31.6 20.5 58 5.9 ESE 9 15 5 8 1010.3 - 0.0
23/09:30am 28.5 30.2 20.2 60 5.5 E 11 19 6 10 1010.4 1009.7 0.0
23/09:00am 27.9 29.8 20.5 64 4.9 ESE 11 15 6 8 1010.5 1009.8 0.0
23/08:30am 26.8 29.2 19.7 65 4.6 ESE 6 9 3 5 1010.5 1009.8 0.0
23/08:00am 24.6 27.9 19.9 75 3.0 E 2 6 1 3 1010.3 - 0.0
23/07:30am 21.9 24.5 19.3 85 1.7 NE 4 4 2 2 1010.0 1009.3 0.0
23/07:00am 21.0 24.4 19.3 90 1.1 CALM 0 0 0 0 1009.8 - 0.0
23/06:30am 21.0 24.2 18.9 88 1.3 CALM 0 0 0 0 1009.4 1008.7 0.0
23/06:00am 21.0 24.2 18.8 87 1.4 CALM 0 0 0 0 1009.2 1008.5 0.0
23/05:30am 21.4 24.7 19.1 87 1.5 CALM 0 0 0 0 1008.9 1008.2 0.0
23/05:00am 21.7 25.0 19.1 85 1.7 CALM 0 0 0 0 1008.8 - 0.0
23/04:30am 21.6 24.4 18.8 84 1.8 NE 2 4 1 2 1008.5 1007.8 0.0
23/04:00am 21.5 24.5 19.2 87 1.5 NE 2 4 1 2 1008.5 - 0.0
23/03:30am 21.7 25.1 19.3 86 1.5 CALM 0 0 0 0 1008.7 1008.0 0.0
23/03:00am 21.6 25.0 19.3 87 1.5 CALM 0 4 0 2 1008.5 1007.8 0.0
23/02:30am 21.8 25.1 19.9 89 1.2 NE 2 4 1 2 1008.8 1008.1 0.0
23/02:00am 22.0 25.6 19.7 87 1.5 CALM 0 0 0 0 1009.2 - 0.0
23/01:30am 22.1 25.2 18.7 81 2.2 CALM 0 0 0 0 1009.5 1008.8 0.0
23/01:00am 22.5 26.0 19.5 83 1.9 CALM 0 0 0 0 1009.8 - 0.0
23/12:30am 22.8 26.2 19.4 81 2.2 NE 0 0 0 0 1010.1 1009.4 0.0
23/12:00am 23.7 26.8 19.4 77 2.8 ENE 2 4 1 2 1010.5 1009.8 0.0
 
Date/Time
CST
Temp
°C
App
Temp
°C
Dew
Point
Rel
Hum
%
Delta-T
°C
Wind Press
QNH
hPa
Press
MSL
hPa
Rain
since 9 am
mm
Dir
 
Spd
km/h
Gust
km/h
Spd
kts
Gust
kts
22/11:30pm 25.3 27.2 18.5 66 4.3 NE 6 9 3 5 1010.7 1010.0 0.0
22/11:00pm 23.3 26.8 20.4 84 1.9 SE 2 4 1 2 1010.3 - 0.0
22/10:30pm 23.4 27.2 20.2 82 2.1 CALM 0 0 0 0 1010.3 1009.6 0.0
22/10:00pm 23.5 27.0 19.6 79 2.5 CALM 0 0 0 0 1010.3 - 0.0
22/09:30pm 23.8 27.4 19.7 78 2.6 CALM 0 0 0 0 1010.1 1009.4 0.0
22/09:00pm 24.4 28.4 20.5 79 2.6 CALM 0 0 0 0 1009.9 1009.2 0.0
22/08:30pm 24.7 28.8 20.8 79 2.6 CALM 0 0 0 0 1009.8 1009.1 0.0
22/08:00pm 25.3 29.4 20.8 76 3.0 CALM 0 0 0 0 1009.5 - 0.0
22/07:30pm 26.4 30.4 21.4 74 3.3 SE 2 2 1 1 1009.0 1008.3 0.0
22/07:00pm 27.5 30.5 19.3 61 5.3 SE 2 2 1 1 1008.7 - 0.0
22/06:30pm 30.1 32.5 18.8 50 7.3 SE 4 4 2 2 1008.5 1007.8 0.0
22/06:00pm 31.5 33.1 17.8 44 8.8 SE 6 11 3 6 1007.9 1007.2 0.0
22/05:30pm 32.1 32.9 17.2 41 9.5 SE 9 17 5 9 1007.5 1006.8 0.0
22/05:00pm 32.9 33.4 17.5 39 9.9 SE 11 19 6 10 1007.2 - 0.0
22/04:30pm 33.6 34.0 17.3 37 10.5 SE 11 17 6 9 1006.9 1006.2 0.0
22/04:00pm 33.4 33.0 17.1 37 10.4 SE 15 20 8 11 1006.9 - 0.0
22/03:30pm 33.6 33.1 16.9 37 10.7 E 15 24 8 13 1007.0 1006.3 0.0
22/03:00pm 33.5 33.3 17.6 38 10.3 SE 15 24 8 13 1007.3 1006.6 0.0
22/02:30pm 33.3 33.1 17.5 39 10.2 ESE 15 22 8 12 1007.9 1007.2 0.0
22/02:00pm 33.5 33.8 18.8 41 9.6 ESE 15 22 8 12 1008.3 - 0.0
22/01:30pm 32.7 31.9 18.1 42 9.5 ESE 19 26 10 14 1008.9 1008.2 0.0
22/01:00pm 32.5 31.7 17.9 41 9.4 E 19 28 10 15 1009.4 - 0.0
22/12:30pm 32.2 32.0 18.4 44 9.0 ESE 17 24 9 13 1009.9 1009.2 0.0
22/12:00pm 31.9 31.1 18.1 43 8.9 ESE 19 28 10 15 1010.5 1009.8 0.0
22/11:30am 31.6 31.8 18.6 46 8.5 ESE 15 28 8 15 1011.2 1010.6 0.0
22/11:00am 31.1 31.5 19.1 48 7.8 ESE 15 22 8 12 1011.8 - 0.0
22/10:30am 30.2 31.2 20.2 55 6.6 ESE 15 19 8 10 1012.2 1011.6 0.0
22/10:00am 28.8 29.7 20.0 59 5.8 E 15 20 8 11 1012.5 - 0.0
22/09:30am 28.0 29.4 20.3 63 5.1 E 13 22 7 12 1012.2 1011.6 0.0
22/09:00am 27.2 28.7 20.5 67 4.4 E 13 19 7 10 1011.9 1011.3 0.0
22/08:30am 26.2 27.5 20.1 69 4.0 E 13 17 7 9 1011.9 1011.3 0.0
22/08:00am 25.6 28.7 21.1 76 3.0 E 6 9 3 5 1011.7 - 0.0
22/07:30am 23.9 26.9 20.0 79 2.5 E 4 6 2 3 1011.3 1010.7 0.0
22/07:00am 23.2 25.6 19.6 80 2.3 E 6 7 3 4 1010.7 - 0.0
22/06:30am 23.0 25.4 19.6 81 2.2 ENE 6 6 3 3 1010.4 1009.7 0.0
22/06:00am 23.7 26.0 19.4 77 2.8 ENE 6 7 3 4 1010.3 1009.6 0.0
22/05:30am 23.5 25.9 19.6 79 2.5 E 6 6 3 3 1010.1 1009.4 0.0
22/05:00am 24.0 26.3 19.5 76 2.9 E 6 6 3 3 1009.9 - 0.0
22/04:30am 24.0 26.2 19.7 77 2.8 ESE 7 9 4 5 1009.7 1009.0 0.0
22/04:00am 22.9 25.4 19.9 83 1.9 ESE 6 7 3 4 1009.8 - 0.0
22/03:30am 22.5 26.2 20.0 86 1.6 CALM 0 0 0 0 1009.9 1009.2 0.0
22/03:00am 22.9 26.1 20.6 87 1.5 SSE 4 4 2 2 1010.0 1009.3 0.0
22/02:30am 22.8 26.5 20.7 88 1.4 N 2 4 1 2 1009.8 1009.1 0.0
22/02:00am 23.0 27.3 21.1 89 1.2 CALM 0 0 0 0 1010.2 - 0.0
22/01:30am 23.0 27.1 20.7 87 1.5 CALM 0 0 0 0 1010.5 1009.8 0.0
22/01:00am 23.3 27.5 21.0 87 1.5 CALM 0 0 0 0 1010.7 - 0.0
22/12:30am 23.7 28.0 21.2 86 1.7 CALM 0 0 0 0 1011.1 1010.5 0.0
22/12:00am 24.0 28.6 21.7 87 1.5 CALM 0 0 0 0 1011.3 1010.7 0.0
 
Date/Time
CST
Temp
°C
App
Temp
°C
Dew
Point
Rel
Hum
%
Delta-T
°C
Wind Press
QNH
hPa
Press
MSL
hPa
Rain
since 9 am
mm
Dir
 
Spd
km/h
Gust
km/h
Spd
kts
Gust
kts
21/11:30pm 24.4 28.9 21.5 84 1.9 CALM 0 2 0 1 1011.3 1010.7 0.0
21/11:00pm 24.6 29.3 21.9 85 1.8 CALM 0 0 0 0 1011.3 - 0.0
21/10:30pm 24.4 29.0 21.7 85 1.8 CALM 0 0 0 0 1011.2 1010.6 0.0
21/10:00pm 24.8 29.3 21.5 82 2.2 CALM 0 0 0 0 1011.2 - 0.0
21/09:30pm 25.2 29.6 21.3 79 2.6 CALM 0 0 0 0 1011.1 1010.5 0.0
21/09:00pm 25.5 29.1 21.2 77 2.9 N 4 6 2 3 1011.0 1010.4 0.0
21/08:30pm 25.9 31.2 23.0 84 2.0 CALM 0 0 0 0 1010.6 1009.9 0.0
21/08:00pm 26.2 31.2 22.5 80 2.5 CALM 0 0 0 0 1010.4 - 0.0
21/07:30pm 26.7 31.3 21.7 74 3.4 CALM 0 0 0 0 1010.0 1009.3 0.0
21/07:00pm 28.1 33.2 22.6 72 3.7 CALM 0 0 0 0 1009.7 - 0.0
21/06:30pm 29.2 33.8 21.7 64 5.1 CALM 0 0 0 0 1009.5 1008.8 0.0
21/06:00pm 30.8 34.8 21.3 57 6.4 ESE 2 4 1 2 1009.4 1008.7 0.0
21/05:30pm 31.9 34.6 19.5 47 8.2 ESE 4 6 2 3 1009.3 1008.6 0.0
21/05:00pm 32.3 34.4 18.1 42 9.2 ESE 4 7 2 4 1009.0 - 0.0
21/04:30pm 32.7 34.1 17.7 40 9.7 ESE 7 13 4 7 1008.9 1008.2 0.0
21/04:00pm 33.1 33.7 17.7 40 9.9 E 11 19 6 10 1008.8 - 0.0
21/03:30pm 33.6 34.0 17.3 37 10.5 NE 11 19 6 10 1008.8 1008.1 0.0
21/03:00pm 33.3 33.4 16.6 36 10.6 E 11 17 6 9 1008.8 1008.1 0.0
21/02:30pm 33.3 33.6 17.1 38 10.4 E 11 20 6 11 1009.0 1008.3 0.0
21/02:00pm 33.6 32.5 17.3 37 10.5 ESE 19 28 10 15 1009.4 - 0.0
21/01:30pm 33.1 32.4 17.3 39 10.1 E 17 32 9 17 1009.8 1009.1 0.0
21/01:00pm 32.8 32.5 17.4 39 9.9 E 15 24 8 13 1009.9 - 0.0
21/12:30pm 32.2 31.2 16.5 39 9.9 E 17 26 9 14 1010.2 1009.5 0.0
21/12:00pm 31.8 30.9 16.9 40 9.5 E 17 28 9 15 1010.6 1009.9 0.0
21/11:30am 31.3 29.9 16.9 42 9.1 E 20 33 11 18 1011.2 1010.6 0.0
21/11:00am 30.9 30.5 18.9 48 7.8 E 19 24 10 13 1011.5 - 0.0
21/10:30am 30.0 30.6 19.4 53 6.9 E 15 20 8 11 1011.6 1011.0 0.0
21/10:00am 29.3 30.5 19.9 57 6.2 ESE 13 19 7 10 1011.5 - 0.0
21/09:30am 28.3 29.7 20.3 62 5.3 SE 13 19 7 10 1011.4 1010.8 0.0
21/09:00am 27.8 29.7 20.6 65 4.8 ESE 11 17 6 9 1011.3 1010.7 0.0
21/08:30am 26.7 29.7 21.2 72 3.7 ESE 7 11 4 6 1011.3 1010.7 0.0
21/08:00am 25.0 28.9 21.9 83 2.1 SE 4 6 2 3 1011.1 - 0.0
21/07:30am 22.1 26.3 20.9 93 0.8 CALM 0 0 0 0 1011.0 1010.4 0.0
21/07:00am 21.9 26.0 20.7 93 0.8 CALM 0 0 0 0 1010.6 - 0.0
21/06:30am 21.9 25.9 20.5 92 0.9 CALM 0 0 0 0 1010.2 1009.5 0.0
21/06:00am 21.8 25.7 20.3 91 1.0 CALM 0 0 0 0 1009.9 1009.2 0.0
21/05:30am 22.0 25.9 20.3 90 1.1 CALM 0 0 0 0 1009.5 1008.8 0.0
21/05:00am 22.4 26.6 20.9 91 1.0 CALM 0 0 0 0 1009.6 - 0.0
21/04:30am 22.7 26.7 20.6 88 1.4 CALM 0 0 0 0 1009.5 1008.8 0.0
21/04:00am 23.6 27.2 20.5 83 2.0 SE 2 4 1 2 1009.5 - 0.0
21/03:30am 24.4 27.8 20.9 81 2.3 SE 4 6 2 3 1009.6 1008.9 0.0
21/03:00am 24.0 27.9 21.1 84 1.9 SE 2 4 1 2 1009.7 1009.0 0.0
21/02:30am 24.7 29.0 22.0 85 1.8 SE 2 4 1 2 1009.9 1009.2 0.0
21/02:00am 25.0 29.2 21.7 82 2.2 SE 2 4 1 2 1010.1 - 0.0
21/01:30am 25.1 28.4 21.4 80 2.5 SE 6 7 3 4 1010.5 1009.8 0.0
21/01:00am 25.6 29.1 21.1 76 3.0 ENE 4 6 2 3 1010.7 - 0.0
21/12:30am 26.3 29.2 21.1 73 3.5 NNE 7 13 4 7 1010.9 1010.2 0.0
21/12:00am 26.9 29.4 21.0 70 3.9 ENE 9 15 5 8 1011.1 1010.5 0.0
 
Date/Time
CST
Temp
°C
App
Temp
°C
Dew
Point
Rel
Hum
%
Delta-T
°C
Wind Press
QNH
hPa
Press
MSL
hPa
Rain
since 9 am
mm
Dir
 
Spd
km/h
Gust
km/h
Spd
kts
Gust
kts
20/11:30pm 26.9 30.0 21.4 72 3.7 E 7 13 4 7 1011.1 1010.5 0.0
20/11:00pm 26.8 29.7 21.8 74 3.4 E 9 24 5 13 1010.9 - 0.0
20/10:30pm 25.5 30.8 23.0 86 1.7 CALM 0 0 0 0 1010.6 1009.9 0.0

Other Formats:

Comma delimited format used in spreadsheet applications
http://www.bom.gov.au/fwo/IDD60801/IDD60801.94125.axf

JavaScript Object Notation format (JSON) in row-major order
http://www.bom.gov.au/fwo/IDD60801/IDD60801.94125.json